Total_Precipitation_Accumulation
2.19 1.87 2.92 2.99 2.68 2.45 2.47 2.66 2.87 2.84 2.77 2.66 2.59 2.43 2.16 1.89 1.77 1.75 1.62 1.64 1.61 1.66 1.78 1.82 1.93 2.10 2.09 1.89 1.84 1.97 2.07 2.05 2.09 2.05 1.78 1.78 1.94 1.89 1.83 2.10 2.78 3.23 2.76
1.47 1.52 2.70 2.88 2.56 2.36 2.36 2.66 2.89 2.91 2.95 2.88 2.63 2.34 2.09 1.82 1.67 1.66 1.65 1.57 1.51 1.51 1.55 1.68 1.96 2.34 2.27 2.07 2.04 2.11 2.05 2.10 2.13 2.17 2.14 2.05 2.04 2.06 2.00 2.09 2.59 2.88 2.55
1.19 1.31 2.03 2.80 2.64 2.50 2.58 2.71 2.74 2.71 2.65 2.58 2.40 2.19 2.05 1.83 1.72 1.71 1.68 1.57 1.45 1.41 1.35 1.51 1.88 2.13 2.20 2.09 1.99 1.93 1.86 1.94 1.99 2.23 2.74 3.20 2.53 2.23 2.18 2.10 2.29 2.25 2.21
1.14 1.22 1.55 2.60 2.70 2.60 2.69 2.71 2.55 2.45 2.33 2.16 2.11 2.07 1.93 1.86 1.74 1.66 1.64 1.59 1.44 1.38 1.37 1.51 1.84 1.90 1.95 1.94 1.88 1.71 1.56 1.70 1.87 2.13 2.64 3.20 3.02 2.69 2.50 2.36 2.39 2.11 2.13
1.10 1.20 1.67 2.49 2.55 2.53 2.51 2.52 2.54 2.36 2.21 1.97 1.83 1.88 1.84 1.80 1.65 1.62 1.63 1.52 1.40 1.39 1.32 1.40 1.64 1.77 1.96 1.89 1.76 1.60 1.51 1.63 1.86 1.68 2.01 2.62 3.23 3.12 2.55 2.47 2.50 2.26 2.18
1.18 1.23 1.65 2.24 2.37 2.42 2.36 2.31 2.23 2.09 1.95 1.86 1.74 1.79 1.83 1.80 1.65 1.57 1.52 1.49 1.41 1.37 1.34 1.34 1.48 1.72 1.99 1.93 1.82 1.80 1.78 1.75 1.58 1.62 2.02 2.53 3.12 3.11 2.63 2.43 2.24 2.30 2.24
1.27 1.20 1.50 2.06 2.15 2.26 2.20 2.00 1.98 1.97 1.85 1.76 1.70 1.64 1.66 1.71 1.68 1.59 1.62 1.59 1.45 1.40 1.44 1.42 1.51 1.58 1.74 1.83 1.95 1.95 1.90 1.66 1.46 1.76 1.92 2.37 2.74 2.93 2.54 2.35 2.32 2.48 2.41
1.30 1.20 1.31 1.79 2.00 2.07 2.01 1.95 1.94 1.90 1.81 1.69 1.57 1.50 1.52 1.56 1.50 1.44 1.49 1.50 1.46 1.44 1.49 1.44 1.46 1.40 1.44 1.60 1.86 2.10 2.10 1.61 1.32 1.51 1.62 2.17 2.93 3.00 2.50 2.38 2.38 2.55 2.66
1.55 1.39 1.29 1.40 1.60 1.78 1.96 1.99 2.07 2.05 2.00 1.86 1.63 1.51 1.52 1.47 1.31 1.27 1.40 1.48 1.53 1.56 1.64 1.60 1.58 1.46 1.47 1.63 1.84 2.09 2.08 1.60 1.46 1.56 1.44 2.25 3.21 2.84 2.31 2.15 2.18 2.30 2.49
1.49 1.45 1.35 1.38 1.45 1.53 1.70 1.98 2.27 2.36 2.44 2.16 1.78 1.63 1.50 1.34 1.28 1.33 1.38 1.52 1.66 1.79 1.92 1.92 1.83 1.69 1.70 1.73 1.82 1.86 1.71 1.39 1.44 1.46 1.82 2.38 3.13 2.88 2.29 1.99 2.05 1.99 2.10
1.10 1.16 1.22 1.28 1.39 1.46 1.53 1.65 2.08 2.31 2.48 2.11 1.63 1.63 1.47 1.25 1.20 1.32 1.39 1.82 1.93 2.00 2.18 2.25 2.12 1.96 1.79 1.71 1.73 1.66 1.35 1.14 1.31 1.57 2.07 2.76 3.12 2.92 2.38 2.09 1.90 1.88 1.85
0.93 0.88 0.89 0.89 0.98 1.17 1.29 1.57 1.91 1.97 2.09 1.76 1.52 1.52 1.45 1.50 1.44 1.20 1.34 1.83 2.06 2.14 2.01 2.02 2.14 1.90 1.55 1.31 1.27 1.24 1.15 1.14 1.30 1.57 2.17 3.09 3.27 3.00 2.52 2.17 1.90 1.89 1.87
0.71 0.71 0.69 0.73 0.76 0.93 1.28 1.59 1.84 1.96 2.04 2.01 1.93 1.70 1.66 1.55 1.35 1.20 1.22 1.32 1.46 1.54 1.46 1.57 1.64 1.49 1.40 1.24 1.19 1.13 1.06 1.22 1.56 1.70 2.35 3.20 3.48 3.20 2.73 2.36 2.06 2.03 2.04
0.73 0.74 0.67 0.60 0.67 0.81 1.01 1.25 1.60 1.81 1.87 1.83 1.75 1.45 1.49 1.52 1.36 1.32 1.42 1.49 1.48 1.48 1.63 1.67 1.68 1.61 1.45 1.25 1.22 1.25 1.20 1.20 1.46 1.71 2.30 2.84 3.39 3.62 3.23 2.76 2.47 2.35 2.28
0.82 0.92 0.87 0.72 0.70 0.79 0.91 0.97 1.17 1.40 1.46 1.70 1.75 1.36 1.24 1.28 1.38 1.40 1.30 1.50 1.59 1.63 1.69 1.75 1.69 1.60 1.59 1.41 1.41 1.43 1.44 1.30 1.40 1.52 1.93 2.34 2.84 3.54 3.72 3.37 3.02 2.79 2.61
0.67 0.81 0.87 0.87 0.89 0.90 0.89 0.90 0.91 0.96 1.11 1.25 1.28 1.11 1.06 1.07 1.23 1.43 1.34 1.35 1.46 1.66 1.79 1.80 1.74 1.81 1.78 1.56 1.54 1.59 1.56 1.50 1.54 1.59 1.76 1.80 1.96 2.52 3.15 3.49 3.55 3.33 2.99
0.56 0.65 0.76 0.83 0.89 0.95 1.04 1.05 0.92 0.90 1.05 1.08 1.03 1.02 1.05 1.02 1.16 1.42 1.35 1.26 1.27 1.43 1.64 1.88 1.95 1.94 1.72 1.63 1.65 1.65 1.55 1.53 1.55 1.74 1.79 1.82 1.73 1.83 2.28 2.73 3.21 3.31 3.29
0.54 0.59 0.67 0.64 0.74 0.87 1.05 1.14 1.11 1.09 1.14 1.10 0.96 0.91 0.90 0.90 0.97 1.23 1.31 1.23 1.22 1.41 1.67 1.94 2.13 2.15 1.94 1.90 1.95 1.86 1.65 1.59 1.55 1.69 1.76 1.84 1.94 1.72 1.72 1.88 2.23 2.67 2.97
0.58 0.57 0.60 0.62 0.65 0.71 0.88 1.02 1.02 1.03 1.09 1.05 1.00 0.96 0.88 0.85 0.91 1.16 1.39 1.42 1.40 1.57 1.70 1.70 1.95 2.10 2.21 2.13 1.97 1.84 1.76 1.74 1.71 1.67 1.81 1.82 1.87 1.81 1.66 1.40 1.45 1.79 2.28
0.66 0.62 0.64 0.63 0.61 0.62 0.68 0.81 0.93 0.91 0.94 1.00 0.96 1.01 1.05 1.08 1.10 1.33 1.58 1.61 1.69 1.76 1.86 2.06 2.34 2.36 2.27 2.29 2.07 1.81 1.67 1.70 1.75 1.86 1.86 1.85 1.90 1.74 1.59 1.41 1.30 1.20 1.62
0.56 0.56 0.59 0.65 0.63 0.58 0.55 0.65 0.76 0.81 0.92 1.02 1.10 1.22 1.23 1.22 1.28 1.50 1.70 1.94 2.07 1.95 1.99 2.25 2.55 2.66 2.45 2.28 2.38 2.23 2.03 1.85 1.83 1.77 1.78 1.85 1.87 1.82 1.70 1.63 1.53 1.39 1.44
0.44 0.45 0.50 0.54 0.53 0.48 0.45 0.53 0.68 0.82 0.93 1.11 1.30 1.54 1.48 1.36 1.39 1.41 1.67 1.86 1.96 2.06 2.10 2.22 2.52 2.86 2.63 2.33 2.56 2.98 2.77 2.54 2.04 1.68 1.81 1.85 1.91 1.87 1.77 1.61 1.62 1.54 1.52
0.34 0.42 0.47 0.51 0.52 0.50 0.56 0.74 1.06 1.38 1.54 1.61 1.66 1.89 1.93 1.80 1.74 1.69 1.72 1.83 1.92 2.10 2.25 2.29 2.35 2.69 2.76 2.52 2.48 3.09 3.08 2.89 2.64 2.12 1.77 1.81 1.94 2.00 1.97 1.85 1.73 1.68 1.60
0.34 0.42 0.48 0.52 0.61 0.62 0.75 1.07 1.53 1.89 2.06 2.03 2.09 2.17 2.28 2.21 2.05 2.05 2.05 2.13 2.05 2.04 2.13 2.11 2.12 2.37 2.70 2.75 2.56 2.40 2.37 2.49 2.85 2.59 2.03 1.87 1.89 1.91 2.02 1.88 1.88 1.93 1.89
0.43 0.49 0.57 0.67 0.84 1.00 1.13 1.31 1.64 1.81 1.89 2.03 2.17 2.44 2.64 2.72 2.67 2.62 2.53 2.35 2.13 2.06 2.11 2.15 2.17 2.28 2.40 2.56 2.54 2.37 2.32 2.28 2.15 2.36 2.33 2.11 1.91 1.80 1.90 1.93 1.92 1.93 2.01
0.61 0.69 0.73 0.91 1.06 1.12 1.23 1.34 1.46 1.55 1.70 1.93 2.10 2.37 2.54 2.60 2.66 2.62 2.43 2.14 1.97 1.90 1.99 2.13 2.14 2.20 2.19 2.27 2.25 2.13 2.13 2.13 2.09 2.25 2.18 2.18 2.16 1.79 1.65 1.72 1.78 1.84 1.80